This demonstration page uses our WeatherBlox Daily Observations layout. Learn more.

Left ArrowRight Arrow

38.89511, -77.03637

Hourly Observations for January 10, 2019

Temp ( °F °C ) Dew Point ( °F °C ) Humidity (%) Winds ( mph kmh ) Pressure ( in mb ) Visibility ( mi km ) Precip ( " mm )
12:52 am 00:52 Mostly Cloudy 33 0.6 15 -9.4 47 47 W 17 28 29.92 1013 10 16 0.00 0.03
1:52 am 01:52 Mostly Cloudy 33 0.6 11 -11.7 40 40 WNW 24 39 29.93 1013 10 16 0.00 0.00
2:52 am 02:52 Mostly Cloudy 32 0 12 -11.1 43 43 WNW 13 20 29.93 1014 10 16 0.00 0.00
3:52 am 03:52 Cloudy 32 0 12 -11.1 43 43 WNW 20 31 29.92 1013 10 16 0.00 0.00
4:52 am 04:52 Mostly Cloudy 32 0 12 -11.1 43 43 WNW 17 28 29.91 1013 10 16 0.00 0.00
5:52 am 05:52 Mostly Cloudy 31 -0.6 13 -10.6 47 47 WNW 16 26 29.93 1013 10 16 0.00 0.00
6:52 am 06:52 Partly Cloudy 31 -0.6 13 -10.6 47 47 NW 15 24 29.94 1014 10 16 0.00 0.00
7:52 am 07:52 Mostly Sunny 32 0 13 -10.6 45 45 NW 18 30 29.96 1015 10 16 0.00 0.00
8:52 am 08:52 Sunny 33 0.6 14 -10 45 45 WNW 21 33 29.98 1015 10 16 0.00 0.00
9:52 am 09:52 Mostly Sunny 35 1.7 14 -10 42 42 NW 17 28 30.00 1016 10 16 0.00 0.00
10:52 am 10:52 Mostly Sunny 36 2.2 14 -10 40 40 NW 18 30 30.01 1016 10 16 0.00 0.00
11:52 am 11:52 Mostly Sunny 37 2.8 13 -10.6 37 37 NW 24 39 29.99 1016 10 16 0.00 0.00
12:52 pm 12:52 Mostly Sunny 37 2.8 14 -10 39 39 WNW 21 33 30.00 1016 10 16 0.00 0.00
1:52 pm 13:52 Mostly Sunny 37 2.8 14 -10 39 39 WNW 24 39 30.01 1016 10 16 0.00 0.00
2:52 pm 14:52 Mostly Sunny 37 2.8 13 -10.6 37 37 NW 24 39 30.04 1017 10 16 0.00 0.00
3:52 pm 15:52 Mostly Sunny 37 2.8 13 -10.6 37 37 NW 22 35 30.06 1018 10 16 0.00 0.00
4:52 pm 16:52 Mostly Sunny 35 1.7 13 -10.6 40 40 WNW 18 30 30.09 1019 10 16 0.00 0.00
5:52 pm 17:52 Mostly Clear 34 1.1 13 -10.6 42 42 WNW 13 20 30.11 1020 10 16 0.00 0.00
6:52 pm 18:52 Clear 33 0.6 13 -10.6 43 43 NW 16 26 30.12 1020 10 16 0.00 0.00
7:52 pm 19:52 Clear 32 0 13 -10.6 45 45 NW 22 35 30.14 1021 10 16 0.00 0.00
8:52 pm 20:52 Clear 31 -0.6 13 -10.6 47 47 WNW 14 22 30.15 1021 10 16 0.00 0.00
9:52 pm 21:52 Clear 31 -0.6 13 -10.6 47 47 WNW 10 17 30.17 1022 10 16 0.00 0.00
10:52 pm 22:52 Clear 30 -1.1 13 -10.6 49 49 WNW 9 15 30.18 1022 10 16 0.00 0.00
11:52 pm 23:52 Clear 30 -1.1 13 -10.6 49 49 NW 10 17 30.18 1022 10 16 0.00 0.00

Powered by AerisWeather